QPF
0.00 0.00 0.00 0.00 0.01 0.01 0.03 0.04 0.04 0.05 0.05 0.06 0.06 0.07 0.06 0.04 0.04 0.02 0.01 0.02 0.02 0.01 0.03 0.06 0.07 0.07 0.07 0.08 0.07 0.07 0.07 0.07 0.06 0.05 0.05 0.07 0.08 0.08 0.07 0.06 0.04 0.03 0.02
0.00 0.00 0.00 0.00 0.00 0.01 0.02 0.03 0.03 0.04 0.06 0.07 0.07 0.06 0.06 0.06 0.05 0.04 0.02 0.02 0.02 0.02 0.02 0.05 0.07 0.08 0.08 0.09 0.09 0.09 0.10 0.11 0.10 0.08 0.06 0.06 0.07 0.07 0.07 0.07 0.06 0.05 0.03
0.00 0.00 0.00 0.00 0.00 0.01 0.02 0.03 0.03 0.04 0.05 0.06 0.06 0.05 0.04 0.04 0.04 0.04 0.04 0.03 0.03 0.03 0.03 0.04 0.06 0.08 0.09 0.09 0.10 0.11 0.10 0.10 0.11 0.11 0.09 0.08 0.08 0.09 0.10 0.10 0.09 0.08 0.06
0.00 0.00 0.00 0.00 0.00 0.01 0.02 0.03 0.03 0.04 0.04 0.05 0.05 0.05 0.04 0.04 0.04 0.04 0.04 0.04 0.03 0.02 0.03 0.04 0.06 0.07 0.08 0.09 0.11 0.12 0.11 0.10 0.09 0.10 0.09 0.08 0.08 0.09 0.10 0.11 0.11 0.09 0.07
0.00 0.00 0.00 0.00 0.00 0.01 0.02 0.03 0.03 0.04 0.05 0.05 0.05 0.05 0.05 0.04 0.04 0.04 0.04 0.04 0.04 0.04 0.03 0.03 0.05 0.06 0.08 0.09 0.10 0.11 0.12 0.12 0.10 0.09 0.08 0.06 0.07 0.08 0.09 0.10 0.12 0.12 0.10
0.00 0.00 0.00 0.00 0.00 0.01 0.02 0.03 0.04 0.04 0.05 0.06 0.06 0.06 0.05 0.05 0.04 0.04 0.05 0.05 0.05 0.05 0.05 0.05 0.05 0.06 0.08 0.08 0.08 0.09 0.12 0.13 0.13 0.12 0.11 0.08 0.06 0.06 0.08 0.08 0.10 0.13 0.15
0.01 0.00 0.00 0.00 0.00 0.01 0.02 0.03 0.04 0.05 0.05 0.06 0.07 0.07 0.06 0.06 0.06 0.06 0.06 0.06 0.06 0.07 0.07 0.06 0.05 0.06 0.08 0.09 0.07 0.07 0.11 0.15 0.15 0.16 0.16 0.13 0.09 0.07 0.07 0.08 0.08 0.10 0.12
0.01 0.01 0.00 0.00 0.00 0.01 0.02 0.03 0.04 0.04 0.06 0.07 0.08 0.08 0.07 0.07 0.06 0.05 0.05 0.06 0.07 0.08 0.08 0.08 0.07 0.07 0.07 0.08 0.06 0.06 0.09 0.14 0.18 0.19 0.21 0.19 0.14 0.10 0.09 0.08 0.07 0.08 0.09
0.02 0.01 0.01 0.01 0.02 0.03 0.04 0.04 0.05 0.05 0.05 0.07 0.07 0.08 0.09 0.09 0.07 0.06 0.05 0.05 0.07 0.07 0.08 0.09 0.10 0.09 0.08 0.08 0.05 0.05 0.06 0.09 0.17 0.21 0.21 0.21 0.18 0.15 0.13 0.09 0.08 0.07 0.07
0.03 0.02 0.01 0.02 0.02 0.04 0.05 0.05 0.05 0.05 0.05 0.06 0.06 0.06 0.07 0.08 0.08 0.08 0.08 0.07 0.08 0.08 0.08 0.09 0.09 0.09 0.09 0.07 0.05 0.04 0.04 0.06 0.11 0.19 0.23 0.21 0.19 0.17 0.16 0.12 0.12 0.10 0.09
0.04 0.03 0.02 0.03 0.04 0.04 0.04 0.05 0.05 0.05 0.04 0.04 0.04 0.04 0.05 0.06 0.08 0.09 0.09 0.09 0.10 0.11 0.12 0.12 0.11 0.11 0.10 0.08 0.06 0.04 0.04 0.04 0.08 0.14 0.21 0.22 0.20 0.19 0.18 0.13 0.10 0.10 0.11
0.06 0.04 0.02 0.02 0.03 0.04 0.04 0.04 0.04 0.04 0.04 0.03 0.03 0.04 0.05 0.05 0.06 0.07 0.08 0.08 0.10 0.11 0.14 0.16 0.16 0.14 0.12 0.11 0.09 0.07 0.05 0.05 0.06 0.10 0.15 0.19 0.19 0.17 0.18 0.16 0.11 0.09 0.11
0.06 0.04 0.03 0.02 0.02 0.03 0.04 0.04 0.02 0.01 0.02 0.03 0.03 0.03 0.03 0.03 0.04 0.04 0.06 0.07 0.08 0.08 0.10 0.12 0.14 0.15 0.15 0.14 0.11 0.08 0.07 0.08 0.07 0.10 0.12 0.15 0.17 0.17 0.19 0.18 0.14 0.11 0.11
0.04 0.04 0.03 0.02 0.02 0.03 0.04 0.03 0.02 0.01 0.01 0.02 0.03 0.03 0.03 0.03 0.03 0.04 0.05 0.06 0.05 0.05 0.06 0.07 0.09 0.09 0.10 0.11 0.11 0.10 0.06 0.07 0.09 0.11 0.12 0.12 0.12 0.14 0.16 0.18 0.14 0.10 0.10
0.03 0.03 0.02 0.01 0.02 0.03 0.03 0.02 0.02 0.02 0.02 0.02 0.02 0.02 0.03 0.03 0.03 0.04 0.05 0.06 0.06 0.05 0.04 0.05 0.06 0.07 0.09 0.11 0.11 0.09 0.08 0.07 0.08 0.11 0.13 0.14 0.13 0.14 0.16 0.17 0.14 0.09 0.07
0.02 0.01 0.01 0.01 0.02 0.03 0.02 0.01 0.01 0.02 0.03 0.02 0.02 0.02 0.02 0.02 0.03 0.04 0.05 0.05 0.05 0.05 0.04 0.04 0.06 0.06 0.06 0.09 0.13 0.12 0.10 0.09 0.08 0.09 0.12 0.13 0.14 0.15 0.17 0.17 0.15 0.11 0.09
0.01 0.01 0.01 0.01 0.01 0.02 0.01 0.01 0.01 0.01 0.02 0.02 0.03 0.03 0.04 0.03 0.03 0.03 0.04 0.04 0.05 0.05 0.05 0.04 0.05 0.07 0.08 0.08 0.11 0.12 0.12 0.11 0.09 0.09 0.11 0.12 0.13 0.15 0.17 0.18 0.15 0.13 0.11
0.02 0.01 0.01 0.02 0.02 0.02 0.02 0.02 0.02 0.02 0.03 0.03 0.03 0.04 0.04 0.05 0.04 0.04 0.03 0.03 0.03 0.04 0.05 0.06 0.06 0.07 0.08 0.09 0.09 0.10 0.12 0.12 0.11 0.12 0.13 0.15 0.15 0.14 0.15 0.16 0.14 0.11 0.11
0.01 0.01 0.01 0.02 0.02 0.03 0.03 0.02 0.02 0.02 0.02 0.03 0.03 0.03 0.04 0.04 0.05 0.05 0.03 0.02 0.02 0.03 0.03 0.05 0.07 0.09 0.09 0.09 0.11 0.13 0.14 0.14 0.12 0.13 0.14 0.18 0.18 0.14 0.13 0.14 0.14 0.12 0.10
0.01 0.02 0.02 0.02 0.02 0.03 0.03 0.03 0.02 0.02 0.02 0.02 0.02 0.02 0.02 0.03 0.03 0.04 0.04 0.03 0.02 0.02 0.03 0.05 0.06 0.09 0.10 0.10 0.10 0.11 0.15 0.17 0.15 0.13 0.15 0.20 0.19 0.14 0.11 0.11 0.11 0.10 0.10
0.01 0.02 0.02 0.02 0.02 0.03 0.03 0.03 0.02 0.02 0.02 0.02 0.02 0.02 0.02 0.02 0.02 0.02 0.03 0.03 0.03 0.02 0.03 0.04 0.05 0.06 0.08 0.09 0.10 0.10 0.12 0.15 0.16 0.15 0.14 0.20 0.19 0.14 0.12 0.10 0.10 0.09 0.09
0.02 0.02 0.02 0.02 0.02 0.02 0.03 0.03 0.03 0.02 0.02 0.02 0.02 0.02 0.02 0.02 0.02 0.02 0.02 0.02 0.02 0.02 0.03 0.04 0.04 0.05 0.04 0.04 0.07 0.10 0.12 0.15 0.20 0.18 0.14 0.16 0.14 0.12 0.10 0.09 0.10 0.09 0.08
0.03 0.03 0.02 0.02 0.02 0.01 0.01 0.02 0.02 0.02 0.02 0.02 0.02 0.02 0.02 0.02 0.02 0.02 0.02 0.03 0.02 0.03 0.04 0.05 0.04 0.04 0.04 0.04 0.05 0.09 0.13 0.13 0.15 0.15 0.11 0.13 0.12 0.11 0.10 0.10 0.12 0.09 0.08
0.03 0.03 0.03 0.02 0.02 0.02 0.02 0.01 0.01 0.02 0.03 0.03 0.02 0.02 0.02 0.02 0.02 0.02 0.02 0.03 0.02 0.02 0.03 0.04 0.05 0.04 0.04 0.05 0.07 0.09 0.14 0.17 0.16 0.13 0.10 0.11 0.11 0.12 0.12 0.13 0.14 0.12 0.10
0.02 0.02 0.02 0.02 0.01 0.02 0.02 0.02 0.02 0.02 0.02 0.03 0.03 0.02 0.02 0.02 0.02 0.03 0.03 0.04 0.04 0.03 0.04 0.04 0.06 0.07 0.07 0.08 0.10 0.12 0.15 0.18 0.19 0.17 0.12 0.10 0.10 0.10 0.13 0.18 0.19 0.18 0.13
0.01 0.01 0.01 0.01 0.01 0.01 0.02 0.03 0.02 0.02 0.02 0.02 0.02 0.02 0.02 0.02 0.03 0.04 0.04 0.05 0.05 0.05 0.06 0.06 0.06 0.07 0.08 0.09 0.10 0.11 0.13 0.13 0.14 0.15 0.12 0.08 0.08 0.09 0.14 0.19 0.20 0.19 0.16
MSLP
1012.27 1011.98 1011.66 1011.32 1010.93 1010.51 1010.07 1009.63 1009.22 1008.85 1008.53 1008.26 1008.04 1007.85 1007.70 1007.56 1007.43 1007.30 1007.16 1006.99 1006.79 1006.55 1006.28 1006.00 1005.73 1005.51 1005.37 1005.36 1005.48 1005.74 1006.12 1006.61 1007.15 1007.72 1008.27 1008.78 1009.25 1009.68 1010.09 1010.49 1010.89 1011.31 1011.75
1011.95 1011.63 1011.31 1010.95 1010.56 1010.14 1009.69 1009.24 1008.79 1008.37 1007.98 1007.64 1007.35 1007.11 1006.92 1006.79 1006.69 1006.61 1006.54 1006.45 1006.33 1006.16 1005.93 1005.67 1005.38 1005.12 1004.92 1004.83 1004.88 1005.06 1005.39 1005.83 1006.36 1006.93 1007.50 1008.06 1008.59 1009.09 1009.57 1010.03 1010.49 1010.96 1011.43
1011.57 1011.22 1010.86 1010.49 1010.10 1009.68 1009.25 1008.80 1008.36 1007.92 1007.50 1007.10 1006.74 1006.43 1006.18 1006.00 1005.88 1005.81 1005.78 1005.75 1005.70 1005.60 1005.44 1005.22 1004.97 1004.72 1004.50 1004.36 1004.34 1004.45 1004.71 1005.08 1005.55 1006.09 1006.67 1007.25 1007.82 1008.38 1008.92 1009.45 1009.98 1010.50 1011.02
1011.13 1010.72 1010.32 1009.92 1009.53 1009.13 1008.73 1008.33 1007.92 1007.50 1007.07 1006.64 1006.23 1005.85 1005.52 1005.25 1005.07 1004.96 1004.91 1004.90 1004.89 1004.86 1004.78 1004.64 1004.46 1004.25 1004.04 1003.89 1003.83 1003.87 1004.04 1004.33 1004.73 1005.21 1005.75 1006.32 1006.92 1007.52 1008.12 1008.71 1009.30 1009.89 1010.45
1010.62 1010.14 1009.69 1009.26 1008.86 1008.49 1008.14 1007.80 1007.45 1007.09 1006.69 1006.26 1005.82 1005.37 1004.95 1004.58 1004.30 1004.10 1004.00 1003.96 1003.96 1003.97 1003.96 1003.91 1003.80 1003.66 1003.50 1003.36 1003.27 1003.26 1003.35 1003.56 1003.87 1004.28 1004.76 1005.31 1005.90 1006.51 1007.15 1007.79 1008.43 1009.07 1009.69
1010.05 1009.51 1009.00 1008.53 1008.13 1007.78 1007.48 1007.22 1006.95 1006.67 1006.33 1005.93 1005.47 1004.98 1004.48 1004.01 1003.60 1003.30 1003.10 1002.99 1002.97 1002.99 1003.02 1003.03 1003.01 1002.94 1002.83 1002.72 1002.63 1002.58 1002.62 1002.74 1002.97 1003.30 1003.73 1004.23 1004.79 1005.40 1006.05 1006.72 1007.39 1008.06 1008.72
1009.45 1008.84 1008.27 1007.76 1007.35 1007.02 1006.77 1006.57 1006.40 1006.20 1005.94 1005.59 1005.16 1004.64 1004.09 1003.53 1003.01 1002.58 1002.27 1002.08 1001.99 1001.99 1002.02 1002.07 1002.10 1002.09 1002.04 1001.96 1001.88 1001.83 1001.82 1001.90 1002.06 1002.33 1002.69 1003.14 1003.67 1004.26 1004.89 1005.56 1006.24 1006.92 1007.59
1008.82 1008.15 1007.53 1006.99 1006.55 1006.23 1006.01 1005.87 1005.77 1005.66 1005.48 1005.20 1004.81 1004.31 1003.73 1003.12 1002.52 1001.99 1001.57 1001.28 1001.11 1001.05 1001.06 1001.10 1001.15 1001.17 1001.16 1001.11 1001.05 1001.00 1000.99 1001.04 1001.17 1001.39 1001.71 1002.12 1002.61 1003.16 1003.76 1004.40 1005.06 1005.72 1006.38
1008.19 1007.48 1006.81 1006.24 1005.77 1005.44 1005.23 1005.12 1005.06 1005.01 1004.91 1004.70 1004.38 1003.93 1003.37 1002.75 1002.12 1001.53 1001.04 1000.65 1000.40 1000.25 1000.20 1000.20 1000.23 1000.25 1000.25 1000.23 1000.19 1000.16 1000.16 1000.21 1000.33 1000.54 1000.83 1001.21 1001.66 1002.18 1002.74 1003.33 1003.94 1004.56 1005.19
1007.57 1006.83 1006.14 1005.53 1005.04 1004.68 1004.44 1004.33 1004.28 1004.26 1004.21 1004.07 1003.82 1003.45 1002.96 1002.39 1001.79 1001.20 1000.66 1000.22 999.89 999.67 999.53 999.47 999.44 999.42 999.41 999.38 999.36 999.35 999.37 999.45 999.59 999.80 1000.09 1000.45 1000.88 1001.34 1001.85 1002.38 1002.93 1003.49 1004.07
1006.98 1006.24 1005.53 1004.90 1004.37 1003.96 1003.68 1003.52 1003.45 1003.42 1003.39 1003.31 1003.14 1002.87 1002.48 1002.01 1001.49 1000.95 1000.44 999.98 999.60 999.31 999.09 998.94 998.83 998.75 998.69 998.65 998.63 998.64 998.69 998.79 998.95 999.19 999.48 999.83 1000.22 1000.64 1001.08 1001.54 1002.02 1002.51 1003.03
1006.44 1005.71 1005.01 1004.36 1003.79 1003.33 1002.98 1002.74 1002.61 1002.54 1002.51 1002.46 1002.36 1002.19 1001.93 1001.60 1001.20 1000.76 1000.32 999.89 999.50 999.15 998.86 998.62 998.43 998.27 998.15 998.07 998.03 998.05 998.11 998.24 998.42 998.67 998.96 999.28 999.63 1000.00 1000.38 1000.76 1001.16 1001.59 1002.04
1005.96 1005.25 1004.56 1003.91 1003.31 1002.78 1002.35 1002.03 1001.80 1001.67 1001.60 1001.56 1001.52 1001.45 1001.32 1001.14 1000.89 1000.59 1000.25 999.88 999.51 999.15 998.81 998.49 998.22 997.98 997.79 997.66 997.59 997.59 997.66 997.78 997.97 998.20 998.47 998.76 999.05 999.35 999.65 999.96 1000.29 1000.64 1001.04
1005.54 1004.87 1004.20 1003.55 1002.92 1002.34 1001.83 1001.40 1001.08 1000.86 1000.73 1000.68 1000.67 1000.69 1000.68 1000.65 1000.55 1000.40 1000.18 999.90 999.58 999.22 998.85 998.49 998.14 997.83 997.58 997.40 997.29 997.26 997.30 997.41 997.57 997.77 997.98 998.20 998.42 998.63 998.85 999.07 999.33 999.63 999.99
1005.20 1004.56 1003.92 1003.27 1002.62 1001.99 1001.40 1000.88 1000.45 1000.14 999.95 999.87 999.88 999.95 1000.04 1000.13 1000.17 1000.15 1000.05 999.87 999.61 999.28 998.91 998.51 998.13 997.77 997.47 997.24 997.09 997.02 997.03 997.09 997.20 997.33 997.47 997.60 997.72 997.84 997.96 998.10 998.29 998.55 998.89
1004.93 1004.31 1003.69 1003.05 1002.38 1001.71 1001.06 1000.46 999.94 999.55 999.29 999.17 999.17 999.26 999.42 999.59 999.74 999.83 999.84 999.74 999.54 999.25 998.90 998.50 998.10 997.72 997.39 997.14 996.96 996.85 996.82 996.83 996.88 996.93 996.97 997.00 997.01 997.02 997.04 997.11 997.24 997.47 997.81
1004.73 1004.13 1003.52 1002.87 1002.19 1001.49 1000.79 1000.13 999.55 999.08 998.76 998.59 998.57 998.66 998.84 999.06 999.27 999.43 999.50 999.47 999.33 999.09 998.77 998.39 998.00 997.63 997.31 997.05 996.86 996.74 996.67 996.65 996.63 996.61 996.56 996.49 996.40 996.31 996.25 996.24 996.33 996.53 996.87
1004.61 1004.01 1003.39 1002.74 1002.04 1001.31 1000.58 999.87 999.24 998.72 998.36 998.14 998.08 998.16 998.33 998.55 998.78 998.97 999.08 999.09 998.99 998.79 998.50 998.17 997.82 997.49 997.19 996.96 996.79 996.68 996.61 996.56 996.51 996.44 996.33 996.19 996.03 995.87 995.74 995.68 995.73 995.91 996.26
1004.59 1003.97 1003.33 1002.65 1001.93 1001.18 1000.42 999.69 999.03 998.48 998.07 997.82 997.72 997.76 997.90 998.10 998.32 998.50 998.61 998.63 998.56 998.39 998.15 997.87 997.57 997.30 997.06 996.88 996.76 996.68 996.64 996.61 996.57 996.49 996.37 996.20 996.01 995.82 995.65 995.57 995.60 995.77 996.12
1004.71 1004.05 1003.37 1002.66 1001.91 1001.13 1000.35 999.60 998.93 998.36 997.93 997.64 997.51 997.51 997.60 997.75 997.93 998.08 998.17 998.19 998.12 997.98 997.79 997.56 997.32 997.11 996.95 996.84 996.78 996.78 996.80 996.82 996.83 996.79 996.71 996.57 996.41 996.23 996.08 996.00 996.03 996.20 996.53
1004.99 1004.29 1003.56 1002.80 1002.01 1001.21 1000.41 999.65 998.97 998.39 997.95 997.64 997.47 997.42 997.47 997.57 997.69 997.79 997.85 997.85 997.79 997.66 997.50 997.32 997.14 997.00 996.91 996.87 996.90 996.97 997.07 997.19 997.28 997.33 997.34 997.29 997.20 997.10 997.00 996.96 997.00 997.17 997.48
1005.46 1004.71 1003.94 1003.13 1002.30 1001.47 1000.66 999.90 999.21 998.64 998.18 997.86 997.66 997.57 997.56 997.60 997.66 997.71 997.73 997.71 997.64 997.53 997.39 997.24 997.12 997.03 997.00 997.03 997.13 997.28 997.47 997.68 997.88 998.05 998.18 998.26 998.30 998.30 998.30 998.32 998.40 998.57 998.86
1006.13 1005.34 1004.53 1003.68 1002.82 1001.97 1001.15 1000.39 999.71 999.14 998.68 998.34 998.11 997.98 997.92 997.90 997.91 997.91 997.90 997.85 997.77 997.66 997.53 997.41 997.31 997.26 997.26 997.34 997.48 997.70 997.96 998.26 998.57 998.86 999.13 999.36 999.54 999.67 999.78 999.89 1000.02 1000.20 1000.47
1006.98 1006.18 1005.33 1004.47 1003.59 1002.74 1001.92 1001.16 1000.49 999.93 999.47 999.11 998.86 998.68 998.58 998.51 998.47 998.42 998.37 998.30 998.20 998.09 997.97 997.86 997.77 997.73 997.74 997.82 997.98 998.22 998.52 998.88 999.27 999.67 1000.06 1000.42 1000.74 1001.01 1001.24 1001.44 1001.63 1001.83 1002.08
1007.96 1007.16 1006.33 1005.46 1004.60 1003.75 1002.95 1002.21 1001.56 1001.00 1000.54 1000.17 999.89 999.68 999.52 999.41 999.32 999.24 999.15 999.05 998.95 998.83 998.70 998.59 998.49 998.43 998.42 998.48 998.61 998.83 999.13 999.50 999.93 1000.40 1000.87 1001.33 1001.77 1002.15 1002.49 1002.77 1003.02 1003.25 1003.49
1009.01 1008.25 1007.44 1006.61 1005.77 1004.95 1004.18 1003.48 1002.84 1002.30 1001.84 1001.46 1001.15 1000.91 1000.71 1000.55 1000.41 1000.29 1000.18 1000.06 999.94 999.81 999.68 999.54 999.42 999.33 999.28 999.28 999.37 999.53 999.78 1000.13 1000.54 1001.02 1001.53 1002.05 1002.55 1003.02 1003.43 1003.79 1004.09 1004.35 1004.58
Thickness
5652 5654 5655 5655 5656 5658 5659 5661 5662 5663 5663 5664 5665 5665 5666 5666 5666 5666 5668 5666 5666 5666 5668 5669 5669 5669 5670 5670 5670 5669 5669 5668 5668 5668 5668 5667 5666 5665 5664 5663 5662 5661 5659
5643 5644 5645 5645 5647 5648 5649 5651 5652 5653 5654 5655 5655 5656 5656 5657 5657 5657 5658 5658 5657 5657 5658 5660 5661 5662 5662 5663 5663 5663 5662 5662 5662 5662 5662 5661 5661 5659 5659 5658 5657 5656 5655
5634 5634 5635 5636 5637 5637 5639 5640 5642 5643 5644 5645 5645 5646 5647 5647 5648 5648 5648 5648 5649 5649 5649 5650 5651 5652 5653 5655 5655 5655 5654 5655 5655 5655 5655 5655 5655 5654 5653 5652 5651 5651 5650
5625 5625 5626 5626 5626 5627 5628 5630 5631 5633 5634 5634 5635 5636 5636 5637 5637 5638 5638 5638 5638 5639 5640 5640 5640 5642 5643 5644 5645 5646 5646 5646 5647 5648 5648 5648 5649 5648 5647 5647 5646 5646 5645
5616 5616 5615 5615 5615 5616 5617 5618 5620 5621 5623 5623 5624 5625 5626 5627 5627 5627 5628 5627 5628 5628 5629 5630 5630 5631 5632 5634 5635 5636 5637 5637 5638 5639 5640 5641 5641 5641 5641 5641 5641 5640 5639
5606 5605 5605 5605 5604 5605 5605 5606 5608 5608 5610 5611 5613 5614 5615 5616 5616 5617 5617 5617 5617 5617 5617 5618 5619 5621 5621 5622 5624 5626 5627 5628 5629 5630 5631 5633 5634 5634 5635 5634 5634 5634 5633
5596 5595 5594 5593 5592 5593 5593 5594 5595 5597 5598 5598 5600 5604 5606 5607 5607 5607 5606 5606 5606 5606 5605 5606 5607 5609 5611 5613 5613 5615 5616 5618 5620 5621 5622 5624 5625 5626 5627 5628 5627 5627 5627
5587 5585 5583 5582 5581 5581 5582 5582 5583 5584 5586 5585 5587 5590 5596 5599 5600 5597 5596 5595 5595 5595 5595 5595 5596 5597 5599 5600 5603 5604 5605 5607 5609 5611 5613 5614 5616 5618 5620 5620 5621 5620 5620
5579 5576 5574 5573 5572 5571 5572 5572 5572 5573 5574 5574 5573 5572 5576 5584 5586 5588 5586 5585 5584 5584 5584 5585 5585 5586 5586 5589 5591 5593 5594 5595 5597 5599 5602 5604 5605 5607 5611 5613 5613 5613 5613
5571 5569 5566 5565 5563 5562 5562 5562 5561 5561 5561 5562 5561 5560 5560 5562 5563 5572 5575 5573 5572 5572 5572 5573 5574 5575 5575 5576 5578 5580 5581 5583 5585 5587 5590 5592 5595 5597 5601 5604 5604 5605 5605
5564 5561 5558 5557 5555 5553 5553 5552 5551 5551 5550 5550 5550 5549 5549 5548 5548 5550 5560 5563 5561 5561 5560 5560 5561 5564 5564 5565 5566 5568 5568 5569 5572 5574 5577 5581 5584 5587 5590 5593 5595 5596 5596
5557 5554 5550 5548 5547 5545 5544 5543 5542 5541 5540 5539 5538 5538 5537 5537 5537 5537 5542 5547 5550 5551 5548 5548 5549 5550 5552 5552 5554 5555 5556 5557 5559 5562 5565 5568 5572 5576 5579 5581 5584 5585 5586
5549 5546 5542 5540 5539 5537 5535 5534 5533 5533 5532 5530 5529 5527 5526 5525 5524 5523 5524 5530 5534 5538 5537 5537 5537 5538 5539 5539 5541 5543 5544 5545 5547 5549 5552 5556 5560 5564 5567 5570 5572 5574 5576
5542 5538 5534 5532 5530 5529 5527 5526 5525 5524 5522 5521 5519 5517 5514 5513 5511 5510 5510 5512 5517 5524 5526 5526 5526 5526 5527 5528 5529 5529 5532 5534 5535 5537 5540 5544 5548 5552 5555 5558 5560 5563 5564
5533 5530 5527 5525 5523 5520 5518 5517 5516 5515 5513 5511 5509 5506 5504 5503 5501 5499 5498 5497 5497 5504 5513 5516 5515 5515 5514 5516 5518 5518 5521 5524 5524 5526 5529 5533 5536 5540 5544 5547 5549 5551 5553
5525 5523 5520 5517 5515 5513 5510 5508 5507 5506 5503 5501 5499 5497 5495 5493 5492 5490 5487 5486 5486 5487 5494 5503 5503 5503 5503 5505 5507 5507 5510 5513 5515 5517 5520 5522 5526 5530 5533 5536 5538 5541 5542
5516 5514 5512 5510 5507 5505 5503 5501 5499 5497 5494 5493 5490 5488 5486 5484 5482 5480 5478 5477 5477 5477 5480 5488 5490 5491 5493 5495 5498 5499 5500 5503 5506 5508 5510 5514 5518 5521 5524 5526 5528 5530 5531
5508 5506 5504 5501 5500 5498 5495 5493 5491 5488 5486 5484 5482 5479 5477 5475 5474 5472 5470 5470 5470 5470 5470 5476 5480 5481 5484 5486 5488 5489 5491 5494 5497 5500 5503 5506 5510 5513 5515 5517 5519 5520 5522
5500 5497 5495 5494 5492 5490 5487 5485 5482 5480 5477 5475 5473 5470 5469 5466 5466 5464 5463 5463 5463 5463 5463 5465 5470 5472 5475 5477 5478 5481 5483 5485 5488 5491 5496 5500 5503 5505 5507 5509 5510 5512 5513
5491 5489 5487 5486 5483 5481 5479 5476 5474 5472 5470 5467 5464 5462 5460 5458 5457 5456 5455 5455 5455 5456 5457 5458 5461 5464 5467 5470 5470 5473 5476 5478 5481 5485 5489 5493 5495 5496 5499 5500 5502 5504 5505
5483 5481 5479 5478 5476 5474 5472 5468 5465 5464 5462 5460 5457 5454 5452 5450 5448 5447 5447 5448 5447 5448 5450 5452 5454 5457 5461 5462 5465 5467 5468 5471 5473 5476 5481 5485 5487 5488 5490 5491 5493 5495 5496
5476 5474 5471 5470 5468 5466 5464 5460 5456 5455 5454 5452 5450 5448 5446 5443 5442 5441 5440 5440 5440 5442 5445 5446 5450 5453 5456 5458 5459 5460 5462 5464 5467 5471 5473 5476 5477 5479 5481 5483 5484 5486 5486
5468 5467 5465 5463 5461 5459 5455 5452 5449 5447 5447 5445 5443 5442 5441 5439 5436 5436 5436 5436 5437 5438 5438 5440 5445 5449 5451 5453 5453 5455 5457 5459 5462 5463 5464 5466 5468 5471 5473 5475 5476 5477 5478
5461 5459 5458 5456 5454 5452 5449 5446 5444 5442 5441 5440 5438 5435 5434 5433 5431 5429 5430 5432 5433 5435 5436 5437 5440 5444 5446 5447 5447 5449 5450 5451 5453 5454 5456 5457 5458 5461 5463 5466 5468 5469 5470
5453 5451 5450 5448 5447 5446 5443 5440 5438 5438 5437 5435 5433 5430 5427 5426 5425 5422 5423 5425 5428 5430 5431 5433 5435 5437 5438 5439 5440 5440 5441 5444 5446 5446 5447 5448 5449 5451 5453 5456 5459 5461 5462
5446 5444 5443 5442 5441 5440 5438 5434 5431 5431 5431 5430 5428 5426 5423 5421 5419 5418 5418 5420 5423 5426 5427 5429 5431 5431 5432 5433 5434 5435 5437 5440 5441 5440 5441 5442 5443 5444 5444 5447 5449 5452 5453